Terminal Aerodrome Forecast
Issued by NWS Wichita, KS

Home | Current Version | Previous Version | Text Only | Print | Product List | Glossary Off
Versions: 1 2 3 4 5 6 7 8 9 10 11 12 13 14 15 16 17

000
FTUS43 KICT 162112 AAB
TAFICT
TAF AMD
KICT 162112Z 1621/1718 19012KT P6SM SCT025 BKN040 OVC100
      TEMPO 1621/1622 VRB15G30KT 5SM TSRA BKN025CB
     FM162300 32012KT P6SM BKN070
     FM170200 32006KT P6SM BKN200=

USA.gov is the U.S. government's official web portal to all federal, state and local government web resources and services.